Slidell, LA

9:35 PM CDT on May 25, 2017 (GMT -0500)
Slidell

Weather History for KASD - February, 2014

Change the Weather History Date:

Wednesday, February 19, 2014

  Actual Average (KNEW) Record (KNEW)
Temperature  
Mean Temperature 70 °F -  
Max Temperature 77 °F 65 °F 81 °F (1956)
Min Temperature 64 °F 50 °F 31 °F (1978)
Cooling Degree Days 6    
Growing Degree Days 20 (Base 50)    
Moisture  
Dew Point 64 °F    
Average Humidity 88    
Maximum Humidity 97    
Minimum Humidity 57    
Precipitation  
Precipitation 0.00 in - - ()
Sea Level Pressure  
Sea Level Pressure 30.04 in    
Wind  
Wind Speed 5 mph (SSE)    
Max Wind Speed 14 mph    
Max Gust Speed -    
Visibility 6 miles    
Events Fog    
Averages and records for this station are not official NWS values.
T = Trace of Precipitation, MM = Missing Value Source: NWS Daily Summary

Daily Weather History Graph

Daily Weather History Graph

Search for Another Location

Airport or City:

Trip Planner

Search our weather history database for the weather conditions in past years. The results will help you decide how hot, cold, wet, or windy it might be!

Date:

Astronomy

Feb. 19, 2014 Rise Set
Actual Time 6:35 AM CST 5:50 PM CST
Civil Twilight 6:11 AM CST 6:15 PM CST
Nautical Twilight 5:43 AM CST 6:43 PM CST
Astronomical Twilight 5:15 AM CST 7:11 PM CST
Moon 10:20 PM CST (2/19) 9:03 AM CST (2/19)
Length of Visible Light 12h 03m
Length of Day
11h 15m
Waning Gibbous, 79% of the Moon is Illuminated
Feb 19
Waning Gibbous
Feb 22
Last Quarter
Mar 1
New
Mar 8
First Quarter
Mar 16
Full

Hourly Weather History & Observations

Time (CST) Temp. Dew Point Humidity Pressure Visibility Wind Dir Wind Speed Gust Speed Precip Events Conditions
12:33 AM 66.9 °F 64.0 °F 90% 30.06 in 9.0 mi South 6.9 mph - N/A   Overcast
12:53 AM 66.9 °F 64.0 °F 90% 30.07 in 8.0 mi South 4.6 mph - N/A   Overcast
1:31 AM 66.0 °F 64.0 °F 93% 30.06 in 3.0 mi Calm Calm - N/A   Overcast
1:36 AM 66.0 °F 64.0 °F 93% 30.07 in 1.8 mi SSE 3.5 mph - N/A   Overcast
1:53 AM 64.9 °F 64.0 °F 97% 30.06 in 0.8 mi SSE 4.6 mph - N/A   Mist
2:30 AM 64.9 °F 64.0 °F 97% 30.05 in 1.2 mi SE 3.5 mph - N/A   Overcast
2:53 AM 64.9 °F 64.0 °F 97% 30.05 in 1.8 mi SSE 4.6 mph - N/A   Overcast
3:28 AM 64.9 °F 64.0 °F 97% 30.05 in 2.5 mi South 3.5 mph - N/A   Overcast
3:41 AM 64.9 °F 64.0 °F 97% 30.05 in 3.0 mi South 3.5 mph - N/A   Overcast
3:53 AM 64.9 °F 64.0 °F 97% 30.05 in 4.0 mi South 3.5 mph - N/A   Overcast
4:53 AM 64.9 °F 64.0 °F 97% 30.07 in 4.0 mi Calm Calm - N/A   Overcast
5:53 AM 64.9 °F 64.0 °F 97% 30.07 in 3.0 mi Calm Calm - N/A   Overcast
6:13 AM 64.9 °F 64.0 °F 97% 30.09 in 1.5 mi Calm Calm - N/A   Overcast
6:23 AM 64.9 °F 64.0 °F 97% 30.09 in 0.8 mi Calm Calm - N/A   Overcast
6:32 AM 64.9 °F 64.0 °F 97% 30.10 in 1.2 mi Calm Calm - N/A   Overcast
6:44 AM 64.9 °F 64.0 °F 97% 30.09 in 0.2 mi Calm Calm - N/A Fog Fog
6:53 AM 64.0 °F 63.0 °F 96% 30.09 in 0.2 mi SSE 3.5 mph - N/A Fog Fog
7:45 AM 64.9 °F 64.0 °F 97% 30.08 in 1.2 mi SSE 6.9 mph - N/A   Overcast
7:53 AM 64.9 °F 64.0 °F 97% 30.08 in 1.0 mi SSE 5.8 mph - N/A   Overcast
8:28 AM 64.9 °F 64.0 °F 97% 30.09 in 2.5 mi SSE 5.8 mph - N/A   Overcast
8:35 AM 64.9 °F 64.0 °F 97% 30.09 in 4.0 mi SSE 4.6 mph - N/A   Overcast
8:53 AM 66.0 °F 64.0 °F 93% 30.10 in 8.0 mi South 4.6 mph - N/A   Overcast
9:28 AM 70.0 °F 63.0 °F 78% 30.10 in 10.0 mi Variable 6.9 mph - N/A   Mostly Cloudy
9:46 AM 71.1 °F 63.0 °F 75% 30.09 in 10.0 mi Variable 5.8 mph - N/A   Scattered Clouds
9:53 AM 72.0 °F 63.0 °F 73% 30.09 in 10.0 mi South 5.8 mph - N/A   Scattered Clouds
10:53 AM 73.9 °F 62.1 °F 66% 30.09 in 10.0 mi SSE 5.8 mph - N/A   Partly Cloudy
11:53 AM 75.0 °F 59.0 °F 57% 30.06 in 10.0 mi South 6.9 mph - N/A   Overcast
12:53 PM 77.0 °F 61.0 °F 58% 30.02 in 10.0 mi SSW 5.8 mph - N/A   Mostly Cloudy
1:53 PM 77.0 °F 62.1 °F 60% 29.99 in 10.0 mi South 6.9 mph - N/A   Mostly Cloudy
2:53 PM 75.9 °F 64.0 °F 67% 29.98 in 10.0 mi SSE 10.4 mph - N/A   Mostly Cloudy
3:53 PM 75.0 °F 64.0 °F 69% 29.98 in 10.0 mi SSE 11.5 mph - N/A   Mostly Cloudy
4:53 PM 72.0 °F 64.0 °F 76% 29.98 in 10.0 mi SSE 11.5 mph - N/A   Scattered Clouds
5:53 PM 69.1 °F 64.9 °F 87% 29.99 in 10.0 mi SE 6.9 mph - N/A   Partly Cloudy
6:53 PM 66.9 °F 64.9 °F 93% 29.99 in 10.0 mi SE 4.6 mph - N/A   Partly Cloudy
7:17 PM 66.9 °F 64.0 °F 90% 29.99 in 10.0 mi SSE 8.1 mph - N/A   Scattered Clouds
7:23 PM 66.9 °F 64.0 °F 90% 29.99 in 9.0 mi SSE 6.9 mph - N/A   Mostly Cloudy
7:53 PM 66.9 °F 64.0 °F 90% 29.99 in 8.0 mi SE 8.1 mph - N/A   Overcast
8:15 PM 66.0 °F 64.0 °F 93% 29.99 in 6.0 mi SE 5.8 mph - N/A   Overcast
8:53 PM 64.9 °F 64.0 °F 97% 29.99 in 2.5 mi SSE 8.1 mph - N/A   Overcast
9:05 PM 66.0 °F 64.0 °F 93% 29.99 in 4.0 mi SSE 6.9 mph - N/A   Overcast
9:53 PM 66.9 °F 64.0 °F 90% 29.99 in 9.0 mi SSE 10.4 mph - N/A   Overcast
10:29 PM 66.0 °F 64.0 °F 93% 29.98 in 10.0 mi SSE 10.4 mph - N/A   Overcast
10:53 PM 66.0 °F 64.0 °F 93% 29.98 in 10.0 mi South 13.8 mph - N/A   Overcast
11:53 PM 64.9 °F 63.0 °F 93% 29.97 in 10.0 mi South 11.5 mph - N/A   Overcast